CZ-6A DEB, 61152

Orbit data source: Space-Track

CZ-6A DEB, 61152 is space debris in LEO originally from a launch on Tue, 06 Aug 2024 UTC launched from the Taiyaun Space Center, China (TSC). Debris objects in space refer to the collection of defunct objects orbiting the Earth. Examples of debris include non-operational satellites, rocket bodies, and fragments generated from explosions, collisions, or faulty payload assembly.

Loading next visibility...
Identifier
61152, 2024-140QW
Orbit
LEO
Country
Flag of CNCN / PRC
Related business
Manufacturer
SAST
Mission
Spacecraft
Bus & Motor
Unknown
Mass
Unknown
Launch date (UTC)
2024-08-06 (2 years ago)
Launch vehicle
Unknown
Launch site
Taiyaun Space Center, China (TSC)
Object type
Payload
Rocket body
Debris
Shape & HBR
Unknown shape, 0.1 m
Radar Cross Section
Medium (>0.1 m² and <1 m²)

Expand to show TLE details & history
Last TLE update: 13 hours ago

TLE from 13 hours ago
0 CZ-6A DEB
1 61152U 24140QW  26171.31154544  .00000805  00000-0  17107-3 0  9992
2 61152  89.0393 273.1765 0111929 259.9573  98.8992 14.54290788 96922
Epoch: 2026-06-20T07:28Z
TLE epoch observation values (Epoch: 2026-06-20T07:28:37.526Z)
Latitude
0.00001°
Longitude
-107.50784°
Altitude
727.915 km
Speed
7.484 km/s
True Right ascension
18h 12m 42s
True Declination
0° 00' 00"
Sunlit
Object was in full shadow at epoch
Visualization orbit readout
Latitude
Unknown
Longitude
Unknown
Altitude
Unknown
Speed
Unknown
Apparent Right ascension
Unknown
Apparent Declination
Unknown
Sunlit
N/A
Visualization observer readout
Local Sidereal Time
07:24:24
Azimuth
Unknown
Elevation
Unknown
Doppler factor
Unknown
Orbital elements
Apogee altitude
787.891 km
Perigee altitude
629.249 km
Semi-major axis
7,086.707 km
Eccentricity
0.01119
Inclination
89.0393°
RAAN
273.1765°
Arg. of periapsis
259.9573°
True anomaly
100.16353°
Mean anomaly
98.8992°
Eccentric anomaly
99.53165°
Mean motion
3.63812 °/min
Orbital period
98.95 mins
BSTAR
0.00017107
Loading maneuver chart data...
Computing Atmospheric mass density...
Loading historical data...
Loading historical data...
Loading historical data...
Loading historical data...
Loading historical data...
Loading historical data...
Loading historical data...

Documentation

Showing up to 5 results
|